Location: Bremen
(53.0793°N, 8.8017°E)
Time: 11:23:29
(UTC+01:00)

deb Explorer IX - Pass Details

Date: 15 December 2021
Orbit: 544 x 1082 km, 38.8° (Epoch: 14 January)

Event Time Altitude Azimuth Distance (km) Brightness Sun altitude
Rises 10:02:45 0° 253° (WSW) 3,412 ? 8.0°
Reaches altitude 10° 10:07:05 10° 225° (SW) 2,325 ? 8.4°
Maximum altitude 10:09:04 12° 203° (SSW) 2,118 ? 8.5°
Drops below altitude 10° 10:10:58 10° 181° (S) 2,188 ? 8.7°
Sets 10:14:44 0° 150° (SSE) 2,974 ? 8.9°
